This is the latest recevied weather packets stored in our database for station/object KB1RMA-13. If no packets are shown the sender has not sent any weather packets the latest 10 day(s).
| Time | Temp. | Humidity | Pressure | Rain* | Wind** | Luminosity | Snow |
|---|---|---|---|---|---|---|---|
| 1776981271 | 9.44° C | 68% | 1009.9 hPa | 0 mm | - | 161 W/m² | - |
| 1776980966 | 10° C | 68% | 1009.7 hPa | 0 mm | - | 50 W/m² | - |
| 1776980664 | 10° C | 69% | 1009.6 hPa | 0 mm | - | 81 W/m² | - |
| 1776980360 | 9.44° C | 69% | 1009.4 hPa | 0 mm | - | 208 W/m² | - |
| 1776980056 | 10° C | 68% | 1009.7 hPa | 0 mm | - | 207 W/m² | - |
| 1776979752 | 9.44° C | 69% | 1009.4 hPa | 0 mm | - | 240 W/m² | - |
| 1776979449 | 10° C | 69% | 1009.5 hPa | 0 mm | - | 55 W/m² | - |
| 1776979144 | 10° C | 68% | 1009.4 hPa | 0 mm | - | 274 W/m² | - |
| 1776978841 | 10° C | 68% | 1009.4 hPa | 0 mm | - | 297 W/m² | - |
| 1776978539 | 10° C | 69% | 1009.4 hPa | 0 mm | - | 58 W/m² | - |
| 1776978236 | 10° C | 68% | 1009.3 hPa | 0 mm | - | 332 W/m² | - |
| 1776977934 | 10° C | 68% | 1009.3 hPa | 0 mm | - | 361 W/m² | - |
| 1776977630 | 10° C | 68% | 1009.4 hPa | 0 mm | - | 334 W/m² | - |
| 1776977326 | 10.56° C | 68% | 1009.1 hPa | 0 mm | - | 393 W/m² | - |
| 1776977023 | 10.56° C | 67% | 1009.3 hPa | 0 mm | - | 73 W/m² | - |
| 1776976719 | 10.56° C | 67% | 1009 hPa | 0 mm | - | 417 W/m² | - |
| 1776976414 | 10.56° C | 68% | 1008.7 hPa | 0 mm | - | 466 W/m² | - |
| 1776976109 | 10.56° C | 65% | 1008.7 hPa | 0 mm | - | 348 W/m² | - |
| 1776975806 | 11.67° C | 63% | 1008.8 hPa | 0 mm | - | 498 W/m² | - |
| 1776975503 | 11.67° C | 60% | 1008.8 hPa | 0 mm | - | 67 W/m² | - |
| 1776975200 | 11.67° C | 59% | 1008.7 hPa | 0 mm | - | 494 W/m² | - |
| 1776974897 | 12.78° C | 55% | 1008.6 hPa | 0 mm | - | 67 W/m² | - |
| 1776974595 | 17.78° C | 34% | 1008.5 hPa | 0 mm | - | 553 W/m² | - |
| 1776974291 | 17.78° C | 27% | 1008.4 hPa | 0 mm | - | 572 W/m² | - |
| 1776973989 | 17.78° C | 28% | 1008.2 hPa | 0 mm | - | 585 W/m² | - |
* Rain latest hour (hover to see other rain measurements)
** Current wind speed in m/s (hover to see current wind gust speed)